Regional Weather Roundup
Issued by NWS

Current Version | Previous Version | Text Only | Print | Product List | Glossary On
Versions: 1 2 3 4 5 6 7 8 9 10 11 12 13 14 15 16 17 18 19 20 21 22 23 24 25 26 27 28 29 30 31 32 33 34 35 36 37 38 39 40 41 42 43 44 45 46 47 48 49 50
603
ASCA42 TJSJ 282310
RWRPR
PUERTO RICO/U.S. VIRGIN ISLANDS HOURLY WEATHER ROUNDUP
NATIONAL WEATHER SERVICE SAN JUAN PR
700 PM AST SAT MAY 28 2016

PRZ001-004-290000-
PUERTO RICO

CITY           SKY/WX    TMP DP  RH WIND       PRES   REMARKS
SAN JUAN LMM   PTCLDY    82  73  74 SE3       30.00R
AGUADILLA      PTCLDY    79  70  73 CALM      29.99S
CEIBA          CLEAR     79  75  89 CALM      30.03R
$$

PRZ006-007-290000-
U.S. VIRGIN ISLANDS

CITY           SKY/WX    TMP DP  RH WIND       PRES   REMARKS
CHARLOTTE AMA  CLEAR     84  75  74 SE10      30.00S HX  92
CHRISTIANSTED  CLEAR     81  73  78 E7        30.00S
$$

HOURLY WEATHER ROUNDUP FOR THE NEWS MEDIA

CITY           SKY/WX    TMP DP  RH WIND       PRES   REMARKS
ORLANDO        SUNNY     86  70  58 E10       29.99R HX  90
NEW YORK       MOSUNNY   72  58  61 S20G26    30.09S
NEWARK         MOSUNNY   91  64  40 NW12      30.07R HX  92
CHICAGO        MOSUNNY   81  66  60 S20G28    29.87F
HARTFORD       PTSUNNY   76  63  64 SW10      30.07S
BOSTON         PTSUNNY   85  66  53 S12       30.03R
DALLAS         MOSUNNY   86  74  67 SE12      29.91F HX  94
PHILADELPHIA   MOSUNNY   85  65  51 S10       30.11R
LOS ANGELES    PTSUNNY   64  55  72 W13       29.88S
WASHINGTON DC  PTSUNNY   84  61  45 S9        30.10R



USA.gov is the U.S. government's official web portal to all federal, state and local government web resources and services.